CZ-6A DEB

Satellite information

Favourite Embed

Satellite Type and Status

DEBRISIN ORBIT

Key statistics

Satellite CZ-6A DEB at a glance.

Uptime

275

Days in orbit

Revolutions

≈ 14.1

Per day

Orbit

LEO

Low Earth Orbit

Inclination

89.1

Latest

Satellite identification and parameters

Extended collection of information and parameters for CZ-6A DEB.

Object identification

Identified? True

Debris? True

Object name: CZ-6A DEB

International designator: 2024-140ACB

Object number (NORAD): 61811

Object ID (CCSDS): 61811

Country: PEOPLES REPUBLIC OF CHINA (PRC)

Current information (Y/N): Y

RCS size: SMALL

Orbital parameters

Period: 102.241 minutes

Inclination: 89.0507 deg

SMA: 7242.842 km

Apoapsis: 939.909 km

Periapsis: 789.506 km

RAAN: 322.4926 deg

Eccentricy: 0.0103829

Argument of periapsis: 77.9989 deg

Mean anomaly: 283.281 deg

Mean motion: 14.0844281 rev/day

Mean motion (dot): 0.00003057 rev/day2

B* drag term: 0.0016899 1/REarth

Two-line elements (TLE)

Creation date: May 8, 2025, 3:01 a.m.

Reference frame: TEME

Reference center: EARTH

Epoch: May 7, 2025, 6:06 p.m. UTC

TLE line 0: 0 CZ-6A DEB

TLE line 1: 1 61811U 24140ACB 25127.75476991 .00003057 00000-0 16899-2 0 9993

TLE line 2: 2 61811 89.0507 322.4926 0103829 77.9989 283.2810 14.08442810 34146

Live tracking on map

Real-time ground track for satellite CZ-6A DEB.

In-orbit conjunctions

A list of the most updated potential collisions computed for object CZ-6A DEB.

Target Orbit TCA Probability of collision Miss distance Type
METEOR 2-9 LEO 2025-02-23 18:15:19 0.0004063991 226.0 (m) PAYLOAD
SCOUT X-4 R/B SSO 2025-02-11 03:18:41 0.0003899845 142.0 (m) ROCKET BODY
COSMOS 249 DEB LEO 2024-12-08 00:01:03 0.0001941575 125.0 (m) DEBRIS
SL-24 R/B SSO 2024-11-13 06:30:38 0.0001630645 491.0 (m) ROCKET BODY

Associated space launch

18 Low Earth Orbit communication satellites with Ku, Q and V band payloads for the G60 constellation operated by Shanghai Spacecom Satellite Technology (SSST) with funding backed by the Shanghai local government. Initial constellation will consist of 1296 satellites by 2027 with long term plans to expand it to 12000 satellites.

CZ-6A DEB was lifted into orbit during the mission ‘Long March 6A | G60 Polar Group 01’, on board a Long March 6A space rocket.

The launch took place on Aug. 6, 2024, 6:42 a.m. from Launch Complex 9A.

For more information about the launch, click the button.

Launch to space Long March 6A | G60 Polar Group 01
Long March 6A | G60 Polar Group 01

Agency: N/A

Status: Launch Successful

Launch date: Aug. 6, 2024, 6:42 a.m. UTC

Rocket: Long March 6A

Launch pad: Launch Complex 9A

Location: Taiyuan Satellite Launch Center, People's Republic of China

...

Latest news about this satellite

News about space launch
Brightness of first Chinese broadband constellation satellites alarms astronomers

The first satellites of a Chinese broadband constellation are significantly brighter than those of Western systems, posing a new challenge for astronomers.

News about space launch
Chinese rocket stage breaks up into cloud of more than 700 pieces of space debris

HELSINKI — A Chinese Long March 6A rocket’s upper stage has fragmented into a cloud of over 700 pieces of space debris, adding to concerns about long-term orbital safety. China […]

News about space launch
China's Thousand Sails Megaconstellation Kicks Off with Dangerous Debris Field

China's Thousand Sails Megaconstellation Kicks Off with Dangerous Debris Field


Newsletter sign-up

Weekly statistics, charts and insights to help you stay on top of the space industry.